Tracking 22779 objects as of 12-Apr-2021
HD Live streaming from Space Station
objects crossing your sky now

INTELSAT 906

Track INTELSAT 906 now!
INTELSAT 906 is classified as:


NORAD ID: 27513
Int'l Code: 2002-041A
Perigee: 35,779.0 km
Apogee: 35,808.1 km
Inclination: 1.0 °
Period: 1,436.1 minutes
Semi major axis: 42164 km
RCS: 22.5892 m2 (large)
Launch date: September 6, 2002
Source: International Telecommunications Satellite Organization (ITSO)
Launch site: FRENCH GUIANA (FRGUI)

72 C-band, 22 Ku-band, broadcasting, business services, direct-to-home TV broadcasting, telecommunications, VSAT networks.
aabbcc
Your satellite tracking list
Your tracking list is empty




NASA's NSSDC Master Catalog

Two Line Element Set (TLE):
1 27513U 02041A   21102.10590237  .00000009  00000-0  00000+0 0  9996
2 27513   1.0029  95.4182 0003452 299.4432 267.9362  1.00272554 67990
Source of the keplerian elements: AFSPC